Flag for Canada Weather past 2 weeks in Sarnia, Ontario, Canada

Now
61 °F

Fog.


Feels Like: 61 °F
Forecast: 60 / 78 °F
Wind: 5 mph from Southeast

Location: Sarnia Airport

Current Time: Aug 2, 2014 at 3:38:33 AM

Latest Report: Aug 2, 2014 at 3:00 AM


Visibility: 2 mi

Pressure: 30.10 "Hg

Humidity: 94%

Dew point: 59 °F

Location of SarniaLocation

Historic Weather in Sarnia — Graph

°F

Sarnia temperature yesterday

Maximum temperature yesterday: 81 °F (at 1:00 PM)
Minimum temperature yesterday: 57 °F (at 4:00 AM)
Average temperature yesterday: 69 °F

Past Weeks' High & Low Weather Summary

 TemperatureHumidityPressure
High84 °F (Jul 22, 1:00 PM)100% (Jul 19, 11:00 PM)30.24 "Hg (Jul 19, 11:00 PM)
Low50 °F (Jul 25, 4:00 AM)41% (Jul 25, 1:00 PM)29.59 "Hg (Jul 27, 5:59 PM)
Average67 °F75%30.00 "Hg
* Reported Jul 18 2:00 AM — Aug 2 2:00 AM, Sarnia, Weather by CustomWeather, © 2014

Note: Actual official high and low records may vary slightly from our data, if they occured in-between our weather recording intervals... More about our weather records

Advertising

Sarnia weather history for previous 24 hours

 ConditionsComfort  
Time TempWeatherWind HumidityBarometerVisibility
2:00 AM
Aug 2
63 °FFog.2 mph94%30.09 "Hg2 mi
1:50 AM63 °FFog.No wind94%30.09 "Hg2 mi
1:00 AM64 °FFog.3 mph94%30.09 "Hg4 mi
12:00 AM64 °FFog.2 mph88%30.09 "Hg4 mi
11:00 PM
Aug 1
66 °FFog.No wind83%30.10 "Hg6 mi
10:00 PM68 °FPassing clouds.2 mph78%30.10 "Hg7 mi
9:00 PM70 °FPartly sunny.2 mph78%30.09 "Hg5 mi
8:00 PM75 °FPartly sunny.2 mph65%30.07 "Hg9 mi
7:00 PM77 °FMore clouds than sun.5 mph57%30.08 "Hg9 mi
6:46 PM77 °FPartly sunny.7 mph57%30.08 "Hg9 mi
6:00 PM77 °FThunderstorms. Broken clouds.15 mph57%30.06 "Hg9 mi
5:00 PM75 °FThunderstorms. Overcast.7 mph69%30.06 "Hg9 mi
4:00 PM77 °FLight rain. Scattered clouds.5 mph61%30.06 "Hg6 mi
3:56 PM77 °FLight rain. Scattered clouds.2 mph57%30.06 "Hg7 mi
3:04 PM73 °FThunderstorms. Broken clouds.3 mph57%30.07 "Hg7 mi
2:59 PM70 °FStrong thunderstorms. Broken clouds.10 mph69%30.08 "Hg2 mi
2:00 PM79 °FPartly sunny.7 mph54%30.08 "Hg9 mi
1:00 PM81 °FScattered clouds.7 mph54%30.09 "Hg9 mi
12:00 PM77 °FSunny.7 mph65%30.09 "Hg9 mi
11:00 AM75 °FSunny.5 mph69%30.09 "Hg8 mi
10:00 AM72 °FSunny.8 mph78%30.09 "Hg7 mi
9:00 AM68 °FFog.8 mph88%30.09 "Hg5 mi
8:00 AM63 °FFog.8 mph94%30.08 "Hg4 mi
7:00 AM59 °FFog.3 mph94%30.07 "Hg3 mi
6:00 AM59 °FFog.2 mph94%30.06 "Hg3 mi
5:00 AM57 °FFog.3 mph94%30.04 "Hg4 mi
4:00 AM57 °FFog.2 mph94%30.04 "Hg6 mi
3:00 AM59 °FClear.3 mph94%30.03 "Hg9 mi
Weather by CustomWeather, © 2014

See weather overviewHow to use our weather pages